Time,TemperatureF,DewpointF,PressureIn,WindDirection,WindDirectionDegrees,WindSpeedMPH,WindSpeedGustMPH,Humidity,HourlyPrecipIn,Conditions,Clouds,dailyrainin,SoftwareType,DateUTC
2013-04-27 00:08:00,46.4,30.2,29.79,West,270,1.1,-999.0,53,-99.99,,,0.00,Acu-Link.com,2013-04-27 07:08:00,
2013-04-27 00:23:00,46.4,30.2,29.80,SSE,157,1.6,-999.0,53,-99.99,,,0.00,Acu-Link.com,2013-04-27 07:23:00,
2013-04-27 00:38:00,44.6,29.0,29.79,WSW,247,0.0,-999.0,54,-99.99,,,0.00,Acu-Link.com,2013-04-27 07:38:00,
2013-04-27 00:54:00,44.6,29.4,29.78,South,180,3.1,-999.0,55,-99.99,,,0.00,Acu-Link.com,2013-04-27 07:54:00,
2013-04-27 01:09:00,44.6,29.4,29.78,ESE,112,1.6,-999.0,55,-99.99,,,0.00,Acu-Link.com,2013-04-27 08:09:00,
2013-04-27 01:24:00,44.6,29.9,29.78,WSW,247,0.0,-999.0,56,-99.99,,,0.00,Acu-Link.com,2013-04-27 08:24:00,
2013-04-27 01:39:00,42.8,29.1,29.79,South,180,0.0,-999.0,58,-99.99,,,0.00,Acu-Link.com,2013-04-27 08:39:00,
2013-04-27 01:54:00,42.8,29.5,29.78,South,180,0.0,-999.0,59,-99.99,,,0.00,Acu-Link.com,2013-04-27 08:54:00,
2013-04-27 02:10:00,42.8,30.7,29.77,SSE,157,0.0,-999.0,62,-99.99,,,0.00,Acu-Link.com,2013-04-27 09:10:00,
2013-04-27 02:25:00,41.0,29.0,29.76,SSW,202,0.0,-999.0,62,-99.99,,,0.00,Acu-Link.com,2013-04-27 09:25:00,
2013-04-27 02:40:00,42.8,31.1,29.75,SSE,157,1.6,-999.0,63,-99.99,,,0.00,Acu-Link.com,2013-04-27 09:40:00,
2013-04-27 02:55:00,41.0,29.0,29.75,SE,135,0.0,-999.0,62,-99.99,,,0.00,Acu-Link.com,2013-04-27 09:55:00,
2013-04-27 03:10:00,41.0,29.8,29.75,SE,135,0.0,-999.0,64,-99.99,,,0.00,Acu-Link.com,2013-04-27 10:10:00,
2013-04-27 03:25:00,41.0,29.8,29.74,South,180,0.0,-999.0,64,-99.99,,,0.00,Acu-Link.com,2013-04-27 10:25:00,
2013-04-27 03:40:00,41.0,29.8,29.74,ESE,112,0.0,-999.0,64,-99.99,,,0.00,Acu-Link.com,2013-04-27 10:40:00,
2013-04-27 03:55:00,41.0,29.8,29.74,SSE,157,1.1,-999.0,64,-99.99,,,0.00,Acu-Link.com,2013-04-27 10:55:00,
2013-04-27 04:10:00,41.0,29.8,29.73,ESE,112,2.0,-999.0,64,-99.99,,,0.00,Acu-Link.com,2013-04-27 11:10:00,
2013-04-27 04:25:00,41.0,29.8,29.72,East,90,1.1,-999.0,64,-99.99,,,0.00,Acu-Link.com,2013-04-27 11:25:00,
2013-04-27 04:40:00,41.0,29.4,29.71,NE,45,0.0,-999.0,63,-99.99,,,0.00,Acu-Link.com,2013-04-27 11:40:00,
2013-04-27 04:55:00,41.0,29.4,29.70,ESE,112,2.0,-999.0,63,-99.99,,,0.00,Acu-Link.com,2013-04-27 11:55:00,
2013-04-27 05:11:00,41.0,29.4,29.69,ESE,112,2.0,-999.0,63,-99.99,,,0.00,Acu-Link.com,2013-04-27 12:11:00,
2013-04-27 05:26:00,41.0,29.4,29.68,ESE,112,1.6,-999.0,63,-99.99,,,0.00,Acu-Link.com,2013-04-27 12:26:00,
2013-04-27 05:41:00,41.0,29.8,29.67,SSE,157,0.0,-999.0,64,-99.99,,,0.00,Acu-Link.com,2013-04-27 12:41:00,
2013-04-27 05:56:00,41.0,30.2,29.67,ESE,112,1.6,-999.0,65,-99.99,,,0.00,Acu-Link.com,2013-04-27 12:56:00,
2013-04-27 06:11:00,41.0,30.5,29.67,ESE,112,2.7,-999.0,66,-99.99,,,0.00,Acu-Link.com,2013-04-27 13:11:00,
2013-04-27 06:26:00,41.0,30.9,29.67,East,90,0.0,-999.0,67,-99.99,,,0.00,Acu-Link.com,2013-04-27 13:26:00,
2013-04-27 06:42:00,41.0,30.2,29.65,East,90,1.1,-999.0,65,-99.99,,,0.00,Acu-Link.com,2013-04-27 13:42:00,
2013-04-27 06:57:00,42.8,31.5,29.65,South,180,0.0,-999.0,64,-99.99,,,0.00,Acu-Link.com,2013-04-27 13:57:00,
2013-04-27 07:12:00,42.8,31.5,29.64,South,180,2.0,-999.0,64,-99.99,,,0.00,Acu-Link.com,2013-04-27 14:12:00,
2013-04-27 07:27:00,44.6,32.8,29.64,ESE,112,0.0,-999.0,63,-99.99,,,0.00,Acu-Link.com,2013-04-27 14:27:00,
2013-04-27 07:42:00,44.6,32.4,29.64,ESE,112,3.1,-999.0,62,-99.99,,,0.00,Acu-Link.com,2013-04-27 14:42:00,
2013-04-27 07:58:00,48.2,32.3,29.64,SSW,202,1.6,-999.0,54,-99.99,,,0.00,Acu-Link.com,2013-04-27 14:58:00,
2013-04-27 08:13:00,50.0,33.1,29.64,SSE,157,1.6,-999.0,52,-99.99,,,0.00,Acu-Link.com,2013-04-27 15:13:00,
2013-04-27 08:28:00,50.0,32.6,29.64,WNW,292,1.1,-999.0,51,-99.99,,,0.00,Acu-Link.com,2013-04-27 15:28:00,
2013-04-27 08:43:00,50.0,31.6,29.65,NE,45,1.6,-999.0,49,-99.99,,,0.00,Acu-Link.com,2013-04-27 15:43:00,
2013-04-27 08:58:00,50.0,32.1,29.65,WNW,292,2.7,-999.0,50,-99.99,,,0.00,Acu-Link.com,2013-04-27 15:58:00,
2013-04-27 09:13:00,50.0,32.6,29.65,SSW,202,1.6,-999.0,51,-99.99,,,0.00,Acu-Link.com,2013-04-27 16:13:00,
2013-04-27 09:28:00,50.0,34.5,29.64,SE,135,3.1,-999.0,55,-99.99,,,0.00,Acu-Link.com,2013-04-27 16:28:00,
2013-04-27 09:44:00,51.8,35.2,29.63,West,270,0.0,-999.0,53,-99.99,,,0.00,Acu-Link.com,2013-04-27 16:44:00,
2013-04-27 09:59:00,53.6,34.4,29.64,South,180,1.6,-999.0,48,-99.99,,,0.00,Acu-Link.com,2013-04-27 16:59:00,
2013-04-27 10:14:00,53.6,32.8,29.64,South,180,4.0,-999.0,45,-99.99,,,0.00,Acu-Link.com,2013-04-27 17:14:00,
2013-04-27 10:29:00,57.2,31.8,29.63,ESE,112,5.6,-999.0,38,-99.99,,,0.00,Acu-Link.com,2013-04-27 17:29:00,
2013-04-27 10:44:00,59.0,30.7,29.63,NNW,337,3.1,-999.0,34,-99.99,,,0.00,Acu-Link.com,2013-04-27 17:44:00,
2013-04-27 10:59:00,60.8,30.8,29.63,WSW,247,2.0,-999.0,32,-99.99,,,0.00,Acu-Link.com,2013-04-27 17:59:00,
2013-04-27 11:14:00,60.8,30.0,29.63,SW,225,2.7,-999.0,31,-99.99,,,0.00,Acu-Link.com,2013-04-27 18:14:00,
2013-04-27 11:29:00,60.8,30.0,29.63,West,270,3.6,-999.0,31,-99.99,,,0.00,Acu-Link.com,2013-04-27 18:29:00,
2013-04-27 11:44:00,60.8,28.3,29.63,South,180,5.6,-999.0,29,-99.99,,,0.00,Acu-Link.com,2013-04-27 18:44:00,
2013-04-27 12:00:00,60.8,28.3,29.64,South,180,5.1,-999.0,29,-99.99,,,0.00,Acu-Link.com,2013-04-27 19:00:00,
2013-04-27 12:15:00,57.2,26.1,29.63,ESE,112,7.8,-999.0,30,-99.99,,,0.00,Acu-Link.com,2013-04-27 19:15:00,
2013-04-27 12:30:00,57.2,27.6,29.64,ESE,112,3.6,-999.0,32,-99.99,,,0.00,Acu-Link.com,2013-04-27 19:30:00,
2013-04-27 12:45:00,59.0,29.9,29.63,West,270,4.0,-999.0,33,-99.99,,,0.00,Acu-Link.com,2013-04-27 19:45:00,
2013-04-27 13:01:00,59.0,30.7,29.63,WNW,292,3.6,-999.0,34,-99.99,,,0.00,Acu-Link.com,2013-04-27 20:01:00,
2013-04-27 13:16:00,59.0,29.2,29.63,NW,315,2.7,-999.0,32,-99.99,,,0.00,Acu-Link.com,2013-04-27 20:16:00,
2013-04-27 13:31:00,60.8,31.5,29.63,WSW,247,3.1,-999.0,33,-99.99,,,0.00,Acu-Link.com,2013-04-27 20:31:00,
2013-04-27 13:46:00,60.8,30.8,29.64,NNW,337,6.3,-999.0,32,-99.99,,,0.00,Acu-Link.com,2013-04-27 20:46:00,
2013-04-27 14:02:00,59.0,29.9,29.63,North,0,5.1,-999.0,33,-99.99,,,0.00,Acu-Link.com,2013-04-27 21:02:00,
2013-04-27 14:17:00,60.8,30.0,29.64,SSE,157,7.2,-999.0,31,-99.99,,,0.00,Acu-Link.com,2013-04-27 21:17:00,
2013-04-27 14:32:00,60.8,28.3,29.64,WSW,247,2.7,-999.0,29,-99.99,,,0.00,Acu-Link.com,2013-04-27 21:32:00,
2013-04-27 14:47:00,60.8,23.8,29.64,SE,135,4.0,-999.0,24,-99.99,,,0.00,Acu-Link.com,2013-04-27 21:47:00,
2013-04-27 15:02:00,62.6,22.1,29.64,NE,45,8.7,-999.0,21,-99.99,,,0.00,Acu-Link.com,2013-04-27 22:02:00,
2013-04-27 15:17:00,64.4,22.5,29.65,NNE,22,3.1,-999.0,20,-99.99,,,0.00,Acu-Link.com,2013-04-27 22:17:00,
2013-04-27 15:33:00,62.6,21.0,29.65,SSE,157,4.7,-999.0,20,-99.99,,,0.00,Acu-Link.com,2013-04-27 22:33:00,
2013-04-27 15:48:00,60.8,22.8,29.66,SW,225,2.7,-999.0,23,-99.99,,,0.00,Acu-Link.com,2013-04-27 22:48:00,
2013-04-27 16:03:00,60.8,22.8,29.66,NW,315,6.7,-999.0,23,-99.99,,,0.00,Acu-Link.com,2013-04-27 23:03:00,
2013-04-27 16:18:00,60.8,23.8,29.67,NW,315,3.6,-999.0,24,-99.99,,,0.00,Acu-Link.com,2013-04-27 23:18:00,
2013-04-27 16:33:00,59.0,25.1,29.68,NW,315,4.7,-999.0,27,-99.99,,,0.00,Acu-Link.com,2013-04-27 23:33:00,
2013-04-27 16:48:00,57.2,26.8,29.69,NNW,337,6.3,-999.0,31,-99.99,,,0.00,Acu-Link.com,2013-04-27 23:48:00,
2013-04-27 17:03:00,57.2,26.8,29.69,WSW,247,3.1,-999.0,31,-99.99,,,0.00,Acu-Link.com,2013-04-28 00:03:00,
2013-04-27 17:18:00,59.0,27.6,29.70,ENE,67,2.7,-999.0,30,-99.99,,,0.00,Acu-Link.com,2013-04-28 00:18:00,
2013-04-27 17:34:00,55.4,26.0,29.71,NNW,337,3.1,-999.0,32,-99.99,,,0.00,Acu-Link.com,2013-04-28 00:34:00,
2013-04-27 17:49:00,55.4,26.8,29.72,West,270,1.6,-999.0,33,-99.99,,,0.00,Acu-Link.com,2013-04-28 00:49:00,
2013-04-27 18:04:00,59.0,29.2,29.73,SW,225,1.6,-999.0,32,-99.99,,,0.00,Acu-Link.com,2013-04-28 01:04:00,
2013-04-27 18:19:00,55.4,26.8,29.73,WSW,247,5.1,-999.0,33,-99.99,,,0.00,Acu-Link.com,2013-04-28 01:19:00,
2013-04-27 18:35:00,53.6,26.6,29.73,NW,315,3.6,-999.0,35,-99.99,,,0.00,Acu-Link.com,2013-04-28 01:35:00,
2013-04-27 18:50:00,53.6,27.3,29.73,SW,225,3.1,-999.0,36,-99.99,,,0.00,Acu-Link.com,2013-04-28 01:50:00,
2013-04-27 19:05:00,53.6,28.6,29.75,North,0,1.6,-999.0,38,-99.99,,,0.00,Acu-Link.com,2013-04-28 02:05:00,
2013-04-27 19:20:00,51.8,27.6,29.75,SE,135,1.6,-999.0,39,-99.99,,,0.00,Acu-Link.com,2013-04-28 02:20:00,
2013-04-27 19:36:00,51.8,27.6,29.75,North,0,3.1,-999.0,39,-99.99,,,0.00,Acu-Link.com,2013-04-28 02:36:00,
2013-04-27 19:51:00,51.8,27.6,29.75,ENE,67,0.0,-999.0,39,-99.99,,,0.00,Acu-Link.com,2013-04-28 02:51:00,
2013-04-27 20:06:00,50.0,26.6,29.77,NE,45,0.0,-999.0,40,-99.99,,,0.00,Acu-Link.com,2013-04-28 03:06:00,
2013-04-27 20:21:00,50.0,27.8,29.77,East,90,0.0,-999.0,42,-99.99,,,0.00,Acu-Link.com,2013-04-28 03:21:00,
2013-04-27 20:36:00,48.2,27.3,29.78,ESE,112,0.0,-999.0,44,-99.99,,,0.00,Acu-Link.com,2013-04-28 03:36:00,
2013-04-27 20:51:00,46.4,26.8,29.78,ESE,112,0.0,-999.0,46,-99.99,,,0.00,Acu-Link.com,2013-04-28 03:51:00,
2013-04-27 21:06:00,46.4,27.3,29.79,NNW,337,0.0,-999.0,47,-99.99,,,0.00,Acu-Link.com,2013-04-28 04:06:00,
2013-04-27 21:21:00,46.4,27.8,29.80,NE,45,0.0,-999.0,48,-99.99,,,0.00,Acu-Link.com,2013-04-28 04:21:00,
2013-04-27 21:36:00,44.6,26.6,29.80,NE,45,0.0,-999.0,49,-99.99,,,0.00,Acu-Link.com,2013-04-28 04:36:00,
2013-04-27 21:51:00,44.6,27.1,29.81,WSW,247,0.0,-999.0,50,-99.99,,,0.00,Acu-Link.com,2013-04-28 04:51:00,
2013-04-27 22:06:00,44.6,27.6,29.81,NE,45,0.0,-999.0,51,-99.99,,,0.00,Acu-Link.com,2013-04-28 05:06:00,
2013-04-27 22:21:00,44.6,27.1,29.81,NE,45,0.0,-999.0,50,-99.99,,,0.00,Acu-Link.com,2013-04-28 05:21:00,
2013-04-27 22:36:00,44.6,27.6,29.81,SSW,202,0.0,-999.0,51,-99.99,,,0.00,Acu-Link.com,2013-04-28 05:36:00,
2013-04-27 22:51:00,44.6,27.1,29.82,NE,45,0.0,-999.0,50,-99.99,,,0.00,Acu-Link.com,2013-04-28 05:51:00,
2013-04-27 23:06:00,44.6,27.1,29.82,SE,135,0.0,-999.0,50,-99.99,,,0.00,Acu-Link.com,2013-04-28 06:06:00,
2013-04-27 23:21:00,42.8,25.9,29.82,SE,135,0.0,-999.0,51,-99.99,,,0.00,Acu-Link.com,2013-04-28 06:21:00,
2013-04-27 23:36:00,42.8,26.4,29.82,North,0,0.0,-999.0,52,-99.99,,,0.00,Acu-Link.com,2013-04-28 06:36:00,
2013-04-27 23:52:00,41.0,24.3,29.82,NW,315,0.0,-999.0,51,-99.99,,,0.00,Acu-Link.com,2013-04-28 06:52:00,